This is the latest recevied weather packets stored in our database for station/object IZ1HMT-3. If no packets are shown the sender has not sent any weather packets the latest 10 day(s).
| Time | Temp. | Humidity | Pressure | Rain* | Wind** | Luminosity | Snow |
|---|---|---|---|---|---|---|---|
| 1787874010 | 28.89° C | 66% | 1017.8 hPa | - | - | - | - |
| 1787873406 | 28.89° C | 65% | 1016.6 hPa | - | - | - | - |
| 1787872199 | 28.89° C | 66% | 1016.6 hPa | - | - | - | - |
| 1787871595 | 28.89° C | 66% | 1016.9 hPa | - | - | - | - |
| 1787870992 | 28.89° C | 67% | 1017.2 hPa | - | - | - | - |
| 1787870388 | 28.89° C | 67% | 1017 hPa | - | - | - | - |
| 1787869785 | 28.33° C | 67% | 1016.9 hPa | - | - | - | - |
| 1787867973 | 28.89° C | 66% | 1016.7 hPa | - | - | - | - |
| 1787867371 | 28.89° C | 66% | 1016.8 hPa | - | - | - | - |
| 1787866767 | 28.89° C | 65% | 1016.8 hPa | - | - | - | - |
| 1787866162 | 28.89° C | 65% | 1016.9 hPa | - | - | - | - |
| 1787865560 | 29.44° C | 64% | 1017.4 hPa | - | - | - | - |
| 1787864955 | 29.44° C | 64% | 1018.4 hPa | - | - | - | - |
| 1787864352 | 29.44° C | 64% | 1018.1 hPa | - | - | - | - |
| 1787863748 | 29.44° C | 64% | 1017.6 hPa | - | - | - | - |
| 1787863145 | 29.44° C | 64% | 1017.5 hPa | - | - | - | - |
| 1787862541 | 29.44° C | 64% | 1017.7 hPa | - | - | - | - |
| 1787861937 | 29.44° C | 63% | 1017.3 hPa | - | - | - | - |
| 1787861334 | 30.56° C | 59% | 1017.2 hPa | - | - | - | - |
| 1787860730 | 30.56° C | 59% | 1016.9 hPa | - | - | - | - |
| 1787860126 | 30° C | 59% | 1016.9 hPa | - | - | - | - |
| 1787859522 | 30.56° C | 57% | 1016.7 hPa | - | - | - | - |
| 1787858919 | 31.11° C | 57% | 1017 hPa | - | - | - | - |
| 1787858316 | 30.56° C | 56% | 1016.7 hPa | - | - | - | - |
| 1787857712 | 30.56° C | 56% | 1016.6 hPa | - | - | - | - |
* Rain since midnight (hover to see other rain measurements)
** Current wind speed in m/s (hover to see current wind gust speed)